Showing default

TOPEX/POSEIDON, 22076

Orbit data source: Space-Track

TOPEX/POSEIDON, 22076 is an American payload satellite in LEO that was launched on Mon, 10 Aug 1992 UTC via an ARIANE 42P launch vehicle from the French Guiana (FRGUI). Payload-class satellites include a variety of spacecraft equipped with specific instruments for various scientific and technological missions. These include communications satellites like Starlink; space stations such as the ISS; scientific satellites like the Hubble; Earth observation satellites from companies like Planet Labs, Umbra, and HawkEye 360; GPS; miniature CubeSats for education and research; and military/defense satellites.

Loading next visibility...
Identifier
22076, 1992-052A
Orbit
LEO
Country
Flag of USUS
Related business
Manufacturer
Fairchild
Mission
Non-operational Civil Science
Bus & Motor
MMS, Unknown motor
Mass
2,402 kg wet, 2,185 kg dry
Launch date (UTC)
1992-08-10 (34 years ago)
Launch vehicle
ARIANE 42P
Launch site
French Guiana (FRGUI)
Object type
Payload
Rocket body
Debris
Shape & HBR
Hex Poly + 1 Pan, 6.8 m
Radar Cross Section
20.954 m², Large (>1 m²)

Expand to show TLE details & history
Last TLE update: 13 hours ago

TLE from 13 hours ago
0 TOPEX/POSEIDON
1 22076U 92052A   26094.02532892 -.00000049  00000-0  53056-4 0  9994
2 22076  66.0397 286.2515 0008065 272.1276 266.0525 12.81092157573989
Epoch: 2026-04-04T00:36Z
TLE epoch observation values (Epoch: 2026-04-04T00:36:28.418Z)
Latitude
1.66389°
Longitude
-95.95391°
Altitude
1,339.225 km
Speed
7.188 km/s
True Right ascension
07h 02m 03s
True Declination
1° 39' 17"
Sunlit
Object was in daylight at epoch
Visualization orbit readout
Latitude
Unknown
Longitude
Unknown
Altitude
Unknown
Speed
Unknown
Apparent Right ascension
Unknown
Apparent Declination
Unknown
Sunlit
N/A
Visualization observer readout
Local Sidereal Time
19:11:38
Azimuth
Unknown
Elevation
Unknown
Doppler factor
Unknown
Orbital elements
Apogee altitude
1,341.866 km
Perigee altitude
1,329.424 km
Semi-major axis
7,713.782 km
Eccentricity
0.00081
Inclination
66.0397°
RAAN
286.2515°
Arg. of periapsis
272.1276°
True anomaly
265.96031°
Mean anomaly
266.0525°
Eccentric anomaly
266.0064°
Mean motion
3.20363 °/min
Orbital period
112.37 mins
BSTAR
0.000053056
Loading maneuver chart data...
Computing Atmospheric mass density...
Loading historical data...
Loading historical data...
Loading historical data...
Loading historical data...
Loading historical data...
Loading historical data...
Loading historical data...

Documentation

Showing up to 5 results
|